Weather History for KIWA - April, 2014

Change the Weather History Date:

Tuesday, April 15, 2014

  Actual Average Record
Temperature  
Mean Temperature 68 °F -  
Max Temperature 86 °F 80 °F 91 °F (2002)
Min Temperature 51 °F 54 °F 50 °F (1998)
Cooling Degree Days 4    
Growing Degree Days 18 (Base 50)    
Moisture  
Dew Point 19 °F    
Average Humidity 19    
Maximum Humidity 41    
Minimum Humidity 6    
Precipitation  
Precipitation 0.00 in - - ()
Sea Level Pressure  
Sea Level Pressure 29.88 in    
Wind  
Wind Speed 4 mph (ESE)    
Max Wind Speed 9 mph    
Max Gust Speed -    
Visibility 12 miles    
Events      
Averages and records for this station are not official NWS values.
T = Trace of Precipitation, MM = Missing Value Source: NWS Daily Summary

Daily Weather History Graph

Daily Weather History Graph

Search for Another Location

Airport or City:

Trip Planner

Search our weather history database for the weather conditions in past years. The results will help you decide how hot, cold, wet, or windy it might be!

Date:

Astronomy

Apr. 15, 2014 Rise Set
Actual Time 5:56 AM MST 6:57 PM MST
Civil Twilight 5:30 AM MST 7:22 PM MST
Nautical Twilight 5:00 AM MST 7:53 PM MST
Astronomical Twilight 4:29 AM MST 8:24 PM MST
Moon 7:39 PM MST (4/15) 6:07 AM MST (4/15)
Length of Visible Light 13h 52m
Length of Day
13h 00m
Full, 100% of the Moon is Illuminated
Apr 15
Full
Apr 22
Last Quarter
Apr 28
New
May 6
First Quarter
May 14
Full

Hourly Weather History & Observations

Time (MST) Temp. Dew Point Humidity Pressure Visibility Wind Dir Wind Speed Gust Speed Precip Events Conditions
12:15 AM 66.2 °F 8.6 °F 11% 30.00 in 10.0 mi NE 5.8 mph - N/A   Clear
12:35 AM 60.8 °F 15.8 °F 17% 30.00 in 10.0 mi SE 3.5 mph - N/A   Clear
12:55 AM 57.2 °F 23.0 °F 27% 30.00 in 10.0 mi East 6.9 mph - N/A   Clear
1:15 AM 57.2 °F 19.4 °F 23% 30.00 in 10.0 mi SE 6.9 mph - N/A   Clear
1:35 AM 57.2 °F 21.2 °F 25% 29.99 in 10.0 mi WSW 4.6 mph - N/A   Clear
1:55 AM 57.2 °F 17.6 °F 21% 29.99 in 10.0 mi Calm Calm - N/A   Clear
2:15 AM 57.2 °F 21.2 °F 25% 29.98 in 10.0 mi Calm Calm - N/A   Clear
2:35 AM 51.8 °F 19.4 °F 28% 29.97 in 10.0 mi Calm Calm - N/A   Clear
2:55 AM 53.6 °F 21.2 °F 28% 29.98 in 10.0 mi Calm Calm - N/A   Clear
3:15 AM 53.6 °F 24.8 °F 33% 29.97 in 10.0 mi Calm Calm - N/A   Clear
3:35 AM 51.8 °F 28.4 °F 41% 29.97 in 10.0 mi South 4.6 mph - N/A   Clear
3:55 AM 51.8 °F 28.4 °F 41% 29.97 in 10.0 mi SSE 5.8 mph - N/A   Clear
4:15 AM 51.8 °F 24.8 °F 35% 29.97 in 10.0 mi SE 4.6 mph - N/A   Clear
4:35 AM 51.8 °F 23.0 °F 33% 29.97 in 10.0 mi SE 6.9 mph - N/A   Clear
4:47 AM 53.6 °F 21.2 °F 28% 29.97 in 20.0 mi SE 5.8 mph - N/A   Partly Cloudy
4:55 AM 51.8 °F 21.2 °F 30% 29.96 in 10.0 mi SSE 5.8 mph - N/A   Clear
5:15 AM 51.8 °F 24.8 °F 35% 29.96 in 10.0 mi SSE 6.9 mph - N/A   Clear
5:35 AM 51.8 °F 23.0 °F 33% 29.97 in 10.0 mi South 4.6 mph - N/A   Clear
5:47 AM 53.6 °F 21.2 °F 28% 29.97 in 20.0 mi ENE 4.6 mph - N/A   Partly Cloudy
6:47 AM 53.6 °F 12.2 °F 19% 29.97 in 45.0 mi East 3.5 mph - N/A   Partly Cloudy
7:47 AM 62.6 °F 19.4 °F 19% 29.98 in 45.0 mi South 3.5 mph - N/A   Partly Cloudy
8:51 AM 73.4 °F 17.6 °F 12% 29.97 in 45.0 mi WNW 4.6 mph - N/A   Partly Cloudy
9:48 AM 78.8 °F 17.6 °F 10% 29.97 in 35.0 mi Calm Calm - N/A   Partly Cloudy
10:48 AM 78.8 °F 17.6 °F 10% 29.97 in 35.0 mi ESE 6.9 mph - N/A   Partly Cloudy
11:48 AM 80.6 °F 17.6 °F 10% 29.93 in 35.0 mi Variable 4.6 mph - N/A   Mostly Cloudy
12:47 PM 82.4 °F 15.8 °F 8% 29.90 in 35.0 mi ENE 4.6 mph - N/A   Mostly Cloudy
1:47 PM 84.2 °F 17.6 °F 8% 29.87 in 30.0 mi WNW 9.2 mph - N/A   Mostly Cloudy
2:47 PM 86.0 °F 17.6 °F 8% 29.84 in 45.0 mi NNW 6.9 mph - N/A   Mostly Cloudy
3:47 PM 86.0 °F 14.0 °F 7% 29.80 in 45.0 mi WNW 5.8 mph - N/A   Mostly Cloudy
4:47 PM 86.0 °F 12.2 °F 6% 29.78 in 30.0 mi NNW 5.8 mph - N/A   Scattered Clouds
5:47 PM 84.2 °F 12.2 °F 7% 29.77 in 30.0 mi West 3.5 mph - N/A   Scattered Clouds
6:50 PM 84.2 °F 12.2 °F 7% 29.76 in 45.0 mi WNW 5.8 mph - N/A   Scattered Clouds
7:47 PM 78.8 °F 15.8 °F 9% 29.77 in 45.0 mi NNW 5.8 mph - N/A   Scattered Clouds
7:55 PM 75.2 °F 15.8 °F 11% 29.78 in 10.0 mi North 5.8 mph - N/A   Clear
8:15 PM 78.8 °F 14.0 °F 9% 29.78 in 10.0 mi North 6.9 mph - N/A   Clear
8:35 PM 75.2 °F 14.0 °F 10% 29.78 in 10.0 mi North 5.8 mph - N/A   Clear
8:47 PM 75.2 °F 12.2 °F 9% 29.78 in 20.0 mi Calm Calm - N/A   Scattered Clouds
8:55 PM 71.6 °F 14.0 °F 11% 29.78 in 10.0 mi Calm Calm - N/A   Clear
9:15 PM 71.6 °F 17.6 °F 13% 29.78 in 10.0 mi NNE 4.6 mph - N/A   Clear
9:35 PM 68.0 °F 14.0 °F 12% 29.78 in 10.0 mi East 3.5 mph - N/A   Clear
9:48 PM 66.2 °F 14.0 °F 13% 29.78 in 20.0 mi NE 3.5 mph - N/A   Scattered Clouds
9:55 PM 64.4 °F 14.0 °F 14% 29.78 in 10.0 mi East 3.5 mph - N/A   Clear
10:15 PM 64.4 °F 14.0 °F 14% 29.78 in 10.0 mi Calm Calm - N/A   Clear
10:35 PM 62.6 °F 23.0 °F 22% 29.78 in 10.0 mi Calm Calm - N/A   Clear
10:49 PM 60.8 °F 21.2 °F 22% 29.78 in 20.0 mi ESE 3.5 mph - N/A   Scattered Clouds
10:55 PM 62.6 °F 21.2 °F 20% 29.78 in 10.0 mi SE 4.6 mph - N/A   Clear
11:15 PM 62.6 °F 21.2 °F 20% 29.79 in 10.0 mi SE 4.6 mph - N/A   Clear
11:35 PM 62.6 °F 23.0 °F 22% 29.78 in 10.0 mi SE 4.6 mph - N/A   Clear
11:49 PM 60.8 °F 24.8 °F 25% 29.78 in 20.0 mi ESE 5.8 mph - N/A   Scattered Clouds
11:55 PM 60.8 °F 23.0 °F 23% 29.78 in 10.0 mi SE 6.9 mph - N/A   Clear